FW9465 Weather Reports


Display with metric or nautical units.
time (UTC)temp
F
wind
direction
speed
MPH
gust
MPH
rain 1hr
in
rain 24hr
in
rain mn
in
humidity
%
barometer
mb
20260506080231 58 345 8.0 11.0 0.00 0.00 0.00 78 1010.0
20260506072247 59 7 5.0 7.0 0.00 0.00 0.00 80 1009.8
20260506071232 59 19 10.0 14.0 0.00 0.00 0.00 80 1009.6
20260506070330 59 28 7.0 9.0 0.00 0.00 0.00 80 1009.6
20260506062431 60 12 10.0 13.0 0.00 0.00 0.00 79 1009.7
20260506061432 60 12 7.0 10.0 0.00 0.00 0.00 78 1009.6
20260506060431 60 11 11.0 14.0 0.00 0.00 0.00 78 1009.5
20260506050432 62 2 8.0 12.0 0.00 0.00 0.00 76 1009.8
20260506044536 64 15 7.0 10.0 0.00 0.00 0.00 76 1009.7
20260506043534 64 357 11.0 15.0 0.00 0.00 0.00 74 1009.2
20260506042534 64 3 6.0 10.0 0.00 0.00 0.00 74 1009.2
20260506041536 65 17 10.0 15.0 0.00 0.00 0.00 74 1009.6
20260506040533 65 12 9.0 12.0 0.00 0.00 0.00 72 1009.6
20260506034535 66 332 10.0 14.0 0.00 0.00 0.00 73 1009.2
20260506033634 66 355 10.0 14.0 0.00 0.00 0.00 71 1008.7
20260506032634 66 347 9.0 14.0 0.00 0.00 0.00 71 1008.7
20260506030650 67 3 10.0 14.0 0.00 0.00 0.00 71 1008.2
20260506025635 67 25 10.0 14.0 0.00 0.00 0.00 70 1007.9
20260506023733 67 10 12.0 17.0 0.00 0.00 0.00 69 1007.8
20260506022733 68 20 9.0 12.0 0.00 0.00 0.00 70 1007.5
20260506021735 69 348 10.0 13.0 0.00 0.00 0.00 70 1007.4
20260506020832 69 330 8.0 12.0 0.00 0.00 0.00 70 1007.3
20260506015833 69 1 9.0 16.0 0.00 0.00 0.00 69 1007.0
20260506014834 70 348 10.0 16.0 0.00 0.00 0.00 68 1006.8
20260506012835 71 331 8.0 12.0 0.00 0.00 0.00 68 1006.2
20260506003949 73 343 9.0 14.0 0.00 0.00 0.00 64 1005.5
20260506003048 74 5 9.0 11.0 0.00 0.00 0.00 62 1005.4
20260506002133 74 341 7.0 9.0 0.00 0.00 0.00 62 1005.2
20260506002034 74 354 7.0 10.0 0.00 0.00 0.00 62 1005.3
20260506001033 75 3 9.0 11.0 0.00 0.00 0.00 61 1005.0
20260506000133 75 332 8.0 13.0 0.00 0.00 0.00 61 1005.0
20260505235135 76 342 11.0 13.0 0.00 0.00 0.00 60 1005.0
20260505234134 77 356 9.0 15.0 0.00 0.00 0.00 60 1004.8
20260505232134 79 340 11.0 18.0 0.00 0.00 0.00 59 1004.2
20260505231135 80 323 11.0 17.0 0.00 0.00 0.00 60 1004.1
20260505230151 82 344 11.0 16.0 0.00 0.00 0.00 56 1004.3
20260505225233 83 344 8.0 13.0 0.00 0.00 0.00 53 1004.1
20260505223234 84 351 6.0 10.0 0.00 0.00 0.00 48 1003.7
20260505222235 85 339 9.0 14.0 0.00 0.00 0.00 45 1003.7
20260505221333 87 350 10.0 13.0 0.00 0.00 0.00 44 1003.6
20260505220333 91 333 10.0 14.0 0.00 0.00 0.00 43 1003.6
20260505215333 91 282 3.0 4.0 0.00 0.00 0.00 44 1003.3
20260505214334 90 282 0.0 2.0 0.00 0.00 0.00 45 1003.5
20260505213333 90 292 4.0 6.0 0.00 0.00 0.00 43 1003.6
20260505212347 89 294 5.0 8.0 0.00 0.00 0.00 44 1003.5
20260505211434 89 269 8.0 13.0 0.00 0.00 0.00 43 1003.5
20260505210532 89 282 3.0 6.0 0.00 0.00 0.00 43 1003.7
20260505205534 90 256 9.0 11.0 0.00 0.00 0.00 43 1003.9
20260505204633 89 281 4.0 7.0 0.00 0.00 0.00 43 1004.0
20260505203634 89 255 9.0 14.0 0.00 0.00 0.00 42 1004.2
20260505202633 89 260 5.0 9.0 0.00 0.00 0.00 43 1004.1
20260505201634 89 250 6.0 13.0 0.00 0.00 0.00 47 1004.1
20260505195733 89 223 10.0 15.0 0.00 0.00 0.00 49 1004.1
20260505193731 88 210 6.0 12.0 0.00 0.00 0.00 51 1004.5
20260505190832 87 226 8.0 14.0 0.00 0.00 0.00 53 1004.5
20260505185832 87 223 7.0 17.0 0.00 0.00 0.00 55 1004.5
20260505184834 86 225 8.0 15.0 0.00 0.00 0.00 56 1004.4
20260505182932 85 230 6.0 11.0 0.00 0.00 0.00 58 1004.7
20260505180034 84 231 11.0 15.0 0.00 0.00 0.00 61 1004.7
20260505175033 83 191 7.0 11.0 0.00 0.00 0.00 62 1004.7
20260505174131 84 215 11.0 18.0 0.00 0.00 0.00 61 1004.8
20260505173132 83 197 4.0 11.0 0.00 0.00 0.00 64 1005.0
20260505172133 82 192 4.0 10.0 0.00 0.00 0.00 67 1005.0
20260505171133 81 202 4.0 11.0 0.00 0.00 0.00 66 1005.0
20260505170133 81 209 8.0 15.0 0.00 0.00 0.00 65 1004.9
20260505164150 80 201 8.0 18.0 0.00 0.00 0.00 67 1004.8
20260505162231 79 202 7.0 16.0 0.00 0.00 0.00 70 1004.6
20260505160331 78 207 8.0 13.0 0.00 0.00 0.00 71 1004.3
20260505152449 75 207 7.0 19.0 0.00 0.00 0.00 76 1004.5
20260505150532 75 202 13.0 22.0 0.00 0.00 0.00 77 1004.4
20260505140634 72 209 6.0 12.0 0.00 0.00 0.00 82 1004.5
20260505124831 69 193 8.0 18.0 0.00 0.00 0.00 86 1004.1
20260505122931 69 199 11.0 21.0 0.00 0.00 0.00 86 1003.8
20260505121933 69 198 3.0 9.0 0.00 0.00 0.00 87 1003.8
20260505120931 69 202 11.0 18.0 0.00 0.00 0.00 86 1003.7
20260505114931 69 191 13.0 20.0 0.00 0.00 0.00 87 1003.4
20260505113934 69 197 8.0 15.0 0.00 0.00 0.00 88 1003.6
20260505112947 69 199 10.0 16.0 0.00 0.00 0.00 88 1003.6
20260505111030 68 201 7.0 11.0 0.00 0.00 0.00 88 1003.5
20260505102033 68 198 7.0 15.0 0.00 0.00 0.00 87 1003.5
20260505100148 68 185 8.0 13.0 0.00 0.00 0.00 86 1003.4
20260505095231 68 192 10.0 15.0 0.00 0.00 0.00 87 1003.6
20260505094232 68 188 9.0 15.0 0.00 0.00 0.00 87 1003.9
20260505093230 68 175 7.0 11.0 0.00 0.00 0.00 87 1003.9
20260505091231 69 179 8.0 14.0 0.00 0.00 0.00 85 1003.9
20260505090232 69 187 8.0 13.0 0.00 0.00 0.00 86 1004.0
20260505085231 69 172 8.0 14.0 0.00 0.00 0.00 84 1004.0
20260505084330 69 174 8.0 13.0 0.00 0.00 0.00 84 1004.1
20260505083347 69 185 7.0 12.0 0.00 0.00 0.00 83 1004.3
20260505082434 69 176 9.0 15.0 0.00 0.00 0.00 82 1004.3
20260505080446 70 187 7.0 13.0 0.00 0.00 0.00 81 1004.1